This is the latest recevied weather packets stored in our database for station/object KB0RPJ. If no packets are shown the sender has not sent any weather packets the latest 10 day(s).
| Time | Temp. | Humidity | Pressure | Rain* | Wind** | Luminosity | Snow |
|---|---|---|---|---|---|---|---|
| 1778013605 | 13.33° C | 49% | 1010.8 hPa | 0 mm | - | 237 W/m² | - |
| 1778013304 | 12.78° C | 49% | 1010.9 hPa | 0 mm | - | 208 W/m² | - |
| 1778013005 | 12.78° C | 49% | 1011 hPa | 0 mm | - | 220 W/m² | - |
| 1778012704 | 12.78° C | 49% | 1011 hPa | 0 mm | - | 191 W/m² | - |
| 1778012405 | 12.78° C | 48% | 1011 hPa | 0 mm | - | 187 W/m² | - |
| 1778012104 | 12.78° C | 50% | 1010.9 hPa | 0 mm | - | 196 W/m² | - |
| 1778011805 | 12.78° C | 49% | 1010.9 hPa | 0 mm | - | 164 W/m² | - |
| 1778011505 | 12.78° C | 51% | 1011 hPa | 0 mm | - | 170 W/m² | - |
| 1778011204 | 12.78° C | 47% | 1011.1 hPa | 0 mm | - | 192 W/m² | - |
| 1778010905 | 12.78° C | 47% | 1011.3 hPa | 0 mm | - | 212 W/m² | - |
| 1778010606 | 13.33° C | 49% | 1011.2 hPa | 0 mm | - | 209 W/m² | - |
| 1778010306 | 13.33° C | 46% | 1011.2 hPa | 0 mm | - | 218 W/m² | - |
| 1778010006 | 13.33° C | 48% | 1011.1 hPa | 0 mm | - | 227 W/m² | - |
| 1778009705 | 13.33° C | 48% | 1011.1 hPa | 0 mm | - | 236 W/m² | - |
| 1778009406 | 13.33° C | 48% | 1011.3 hPa | 0 mm | - | 299 W/m² | - |
| 1778009118 | 13.33° C | 46% | 1011.2 hPa | 0 mm | - | 356 W/m² | - |
| 1778008805 | 13.33° C | 46% | 1011.3 hPa | 0 mm | - | 265 W/m² | - |
| 1778008505 | 13.33° C | 46% | 1011.4 hPa | 0 mm | - | 282 W/m² | - |
| 1778008222 | 13.33° C | 46% | 1011.4 hPa | 0 mm | - | 366 W/m² | - |
| 1778007905 | 13.33° C | 46% | 1011.2 hPa | 0 mm | - | 671 W/m² | - |
| 1778007607 | 12.78° C | 47% | 1011.2 hPa | 0 mm | - | 522 W/m² | - |
| 1778007305 | 12.78° C | 46% | 1011.2 hPa | 0 mm | - | 403 W/m² | - |
| 1778007008 | 12.78° C | 48% | 1011.2 hPa | 0 mm | - | 379 W/m² | - |
| 1778006704 | 12.78° C | 51% | 1011.1 hPa | 0 mm | - | 315 W/m² | - |
| 1778006405 | 12.78° C | 46% | 1011.1 hPa | 0 mm | - | 382 W/m² | - |
* Rain latest hour (hover to see other rain measurements)
** Current wind speed in m/s (hover to see current wind gust speed)